User: anonymous
Location: Caltech
(34.1382°N, 118.1253°W)
Time: 02:33:32
(UTC-07:00)
Language:

Cosmos 1697 Rocket - Orbit

View from above orbital plane
View from above orbital plane
View from above satellite
View from above satellite

Ground track
Ground track

The orbit data is extracted from the following two-line orbital elements,

1 16182U 85097B   14259.36056073 -.00000026  00000-0  10957-4 0  3616
2 16182 071.0048 322.0435 0007036 183.4295 229.1518 14.16127979493963
Epoch (UTC): 16 September 2014 08:39:12
Eccentricity: 0.0007036
inclination: 71.0048°
perigee height: 833 km
apogee height: 843 km
right ascension of ascending node: 322.0435°
argument of perigee: 183.4295°
revolutions per day: 14.16127979
mean anomaly at epoch: 229.1518°
orbit number at epoch: 49396

The dashed part of the orbit path shows where the satellite is in the earth's shadow,  

DLR